Tracking 31027 objects as of 19-Jul-2025
HD Live streaming from Space Station
objects crossing your sky now

STARLINK-5789

Track STARLINK-5789 now!
10-day predictions
STARLINK-5789 is classified as:


NORAD ID: 56003
Int'l Code: 2023-042T
Perigee: 565.1 km
Apogee: 567.3 km
Inclination: 43.0 °
Period: 95.8 minutes
Semi major axis: 6937 km
RCS: Unknown
Launch date: March 24, 2022
Source: United States (US)
Launch site: AIR FORCE EASTERN TEST RANGE (AFETR)
Your satellite tracking list
IRIDIUM 33 DEB
Track 1 satellite(s)




NASA's NSSDC Master Catalog

Two Line Element Set (TLE):
1 56003U 23042T   25199.43659595 -.00000145  00000-0  43620-5 0  9998
2 56003  43.0039 248.8944 0001560 273.7654  86.3010 15.02536449127670
Source of the keplerian elements: AFSPC